This demonstration page uses our WeatherBlox Daily Observations layout. Learn more.

Left ArrowRight Arrow

44.89941, -97.11507

Hourly Observations for June 2, 2021

Temp ( °F °C ) Dew Point ( °F °C ) Humidity (%) Winds ( mph kmh ) Pressure ( in mb ) Visibility ( mi km ) Precip ( " mm )
12:53 am 00:53 Cloudy 65 18.3 48 8.9 54 54 SW 7 11 29.94 1014 10 16 0.00 0.00
1:53 am 01:53 Mostly Cloudy 65 18.3 47 8.3 52 52 SSW 9 15 29.93 1013 10 16 0.00 0.00
2:53 am 02:53 Mostly Cloudy 64 17.8 47 8.3 54 54 SW 8 13 29.92 1013 10 16 0.00 0.00
3:53 am 03:53 Cloudy 66 18.9 46 7.8 49 49 SW 9 15 29.91 1013 10 16 0.00 0.00
4:53 am 04:53 Cloudy 65 18.3 46 7.8 51 51 WSW 10 17 29.92 1013 10 16 0.00 0.00
5:53 am 05:53 Mostly Sunny 61 16.1 46 7.8 58 58 SW 9 15 29.93 1013 10 16 0.00 0.00
6:53 am 06:53 Mostly Sunny 62 16.7 48 8.9 60 60 SW 10 17 29.92 1013 10 16 0.00 0.00
7:53 am 07:53 Sunny 66 18.9 49 9.4 54 54 SW 13 20 29.92 1013 10 16 0.00 0.00
8:53 am 08:53 Sunny 70 21.1 50 10 49 49 WSW 14 22 29.92 1013 10 16 0.00 0.00
9:53 am 09:53 Sunny 73 22.8 49 9.4 43 43 WSW 15 24 29.92 1013 10 16 0.00 0.00
10:53 am 10:53 Sunny 76 24.4 49 9.4 39 39 SW 17 28 29.91 1013 10 16 0.00 0.00
11:53 am 11:53 Sunny 77 25 49 9.4 37 37 SW 9 15 29.91 1013 10 16 0.00 0.00
12:53 pm 12:53 Sunny 80 26.7 49 9.4 34 34 SW 18 30 29.89 1012 10 16 0.00 0.00
1:53 pm 13:53 Sunny 81 27.2 48 8.9 32 32 SW 9 15 29.88 1012 10 16 0.00 0.00
2:53 pm 14:53 Sunny 82 27.8 48 8.9 31 31 SSW 14 22 29.86 1011 10 16 0.00 0.00
3:53 pm 15:53 Sunny 82 27.8 46 7.8 28 28 SSW 12 19 29.85 1011 10 16 0.00 0.00
4:53 pm 16:53 Mostly Sunny 83 28.3 46 7.8 27 27 WSW 12 19 29.84 1010 10 16 0.00 0.00
5:53 pm 17:53 Mostly Sunny 83 28.3 48 8.9 30 30 SW 10 17 29.83 1010 10 16 0.00 0.00
6:53 pm 18:53 Sunny 81 27.2 46 7.8 29 29 WSW 13 20 29.83 1010 10 16 0.00 0.00
7:53 pm 19:53 Sunny 78 25.6 48 8.9 35 35 SSW 9 15 29.82 1010 10 16 0.00 0.00
8:53 pm 20:53 Sunny 73 22.8 50 10 44 44 SSW 8 13 29.82 1010 10 16 0.00 0.00
9:53 pm 21:53 Clear 66 18.9 52 11.1 61 61 SSW 8 13 29.82 1010 10 16 0.00 0.00
10:53 pm 22:53 Clear 66 18.9 51 10.6 59 59 SSW 9 15 29.83 1010 10 16 0.00 0.00
11:53 pm 23:53 Clear 64 17.8 50 10 60 60 SSW 8 13 29.83 1010 10 16 0.00 0.00

Powered by AerisWeather